Wind_Speed
58 58 59 60 61 62 63 64 64 64 64 63 62 61 58 56 54 53 52 51 50 50 52 53 53 54 55 56 57 57 58 59 59 59 60 63 66 66 66 65 65 65 63 62 62 63 62 60 57 56 55 54 52 48 44 42 40 39 40 40 38 35 31 29 30 29 28 28 29 30 31 31 31 29 28 28 28 26 26 25 25 25 26 28 29
60 60 61 62 63 64 64 65 65 65 64 63 62 61 58 55 53 51 50 50 49 48 50 52 53 54 54 56 56 57 57 57 59 59 58 60 64 66 67 66 66 67 66 64 63 64 64 62 60 58 56 55 55 51 46 44 41 39 39 40 39 36 31 31 31 29 27 26 28 29 31 32 31 30 29 29 28 28 27 26 25 24 25 26 28
62 63 64 64 65 66 66 67 66 66 64 63 61 60 58 54 52 51 49 47 47 47 48 50 53 54 54 55 56 57 57 56 56 58 59 59 60 62 65 67 68 69 68 66 64 64 64 62 61 59 57 57 57 53 48 46 44 42 40 39 38 36 33 31 30 28 27 27 29 30 31 32 32 31 30 30 30 29 28 27 26 26 25 25 26
65 65 65 66 67 68 68 69 68 67 65 63 61 59 57 54 51 50 48 45 44 45 47 49 52 53 54 55 56 57 58 58 57 57 58 59 59 59 61 66 69 70 69 67 65 64 64 62 60 59 58 59 59 54 49 46 45 44 42 39 38 37 35 32 28 27 28 29 31 32 32 32 31 31 31 31 31 31 31 29 28 27 26 25 25
67 67 67 68 69 70 70 70 70 68 66 63 61 59 57 53 50 49 48 45 43 43 45 47 49 52 53 54 55 57 58 59 59 58 58 60 61 60 60 63 66 68 69 69 66 65 65 64 61 60 59 60 59 54 48 45 45 45 43 40 39 39 37 32 29 29 29 30 32 32 32 32 31 31 32 32 33 33 33 32 31 29 28 26 26
68 68 68 69 71 71 71 72 71 69 66 63 60 58 56 53 50 47 46 45 42 41 44 45 47 49 51 53 54 56 58 59 59 58 59 60 62 62 62 63 65 67 69 69 67 66 67 66 63 61 61 60 59 56 50 46 46 45 42 40 39 40 39 35 32 31 30 30 30 31 31 32 32 32 33 34 34 35 35 34 33 33 32 31 29
69 69 70 70 72 73 73 72 71 69 66 63 60 57 54 52 49 46 45 44 42 40 41 43 44 46 49 51 53 55 57 59 59 59 59 59 61 62 64 65 67 68 69 69 68 67 68 67 64 63 63 62 61 59 54 49 47 46 43 39 39 41 41 39 36 34 32 31 30 30 31 32 33 33 34 34 36 36 36 35 35 36 35 35 33
70 70 71 72 74 75 74 73 71 68 65 62 60 56 53 51 48 44 42 42 41 40 39 40 41 43 45 48 51 53 56 58 59 59 59 60 61 63 64 66 68 70 71 70 68 68 68 67 65 65 65 65 63 61 57 52 49 47 44 40 39 39 41 41 39 36 35 33 32 32 32 33 33 34 34 35 36 36 35 36 37 38 37 37 37
72 72 73 74 76 77 76 74 71 67 63 60 58 56 52 49 46 42 40 40 40 39 38 38 39 40 42 46 48 51 55 57 58 59 59 60 62 62 64 66 68 71 74 73 70 68 68 67 66 66 67 68 66 64 60 55 51 48 44 42 41 40 41 42 41 38 37 35 34 33 33 34 35 34 34 35 35 34 33 35 36 37 37 38 39
74 74 75 76 77 79 77 74 70 66 61 58 56 55 51 47 45 41 39 39 39 38 37 37 37 37 40 43 46 50 54 57 58 58 59 61 62 62 63 65 67 70 74 75 72 69 68 67 68 68 68 70 70 68 64 59 55 51 47 44 43 42 41 42 41 39 37 35 33 32 33 35 37 35 33 34 34 33 32 33 34 34 35 37 38
75 75 76 77 79 79 77 73 68 64 60 56 53 52 50 46 43 41 39 39 39 37 36 35 34 35 38 41 45 49 53 55 56 58 59 61 61 61 62 64 65 68 73 75 72 70 68 67 68 70 69 70 71 70 67 63 59 55 51 47 45 43 42 41 40 39 38 35 33 32 32 35 37 34 31 31 31 31 30 31 32 32 33 34 35
76 76 77 78 79 80 77 72 67 62 59 56 51 49 48 46 43 41 39 38 38 36 35 34 33 33 36 40 44 47 51 53 55 56 59 60 60 60 62 63 64 66 71 73 72 70 68 67 68 70 70 70 69 68 66 65 62 58 54 51 47 45 44 42 41 41 40 37 35 34 34 35 35 34 32 31 30 30 29 29 30 30 31 33 33
77 77 78 80 80 80 77 72 65 61 58 55 51 48 45 44 43 41 39 38 37 36 35 34 32 33 36 39 43 46 49 51 53 55 57 58 59 59 60 62 63 65 69 72 72 71 69 68 68 70 70 70 69 67 66 65 64 61 58 53 48 47 47 46 43 43 42 40 37 37 36 36 36 35 34 33 32 31 30 28 27 28 31 33 33
78 78 80 81 81 79 76 72 65 60 57 54 51 47 44 42 41 41 40 38 36 35 35 34 32 33 36 40 43 46 48 50 52 53 55 56 56 57 59 60 61 64 67 71 73 72 70 69 69 70 70 69 67 66 67 67 66 64 61 56 51 49 50 50 48 47 47 46 43 41 40 39 37 37 35 35 36 34 31 29 28 28 29 32 33
78 80 82 82 81 79 75 71 66 61 57 54 50 47 44 42 40 40 40 37 35 35 35 34 32 34 38 41 43 45 47 49 50 51 52 53 54 55 57 59 60 62 65 69 73 74 72 70 70 70 70 69 67 67 69 69 68 66 62 59 55 51 52 55 56 54 52 51 49 45 43 41 39 37 36 39 40 38 34 34 33 30 29 30 33
79 81 82 82 81 78 74 70 65 61 58 53 49 46 44 42 39 39 39 37 34 34 36 34 33 35 39 42 43 45 47 48 49 50 51 51 52 53 55 57 57 59 63 68 72 75 74 71 70 70 70 70 68 68 69 70 69 67 64 63 60 57 56 59 61 59 56 55 53 49 46 45 42 39 40 43 44 41 39 39 38 36 34 32 33
82 82 82 81 79 76 72 68 64 61 57 53 48 44 42 41 38 37 38 37 34 34 36 36 34 36 40 43 43 45 46 48 49 50 50 51 51 52 53 54 54 55 59 64 70 74 75 73 71 70 71 71 70 69 70 71 71 69 67 68 66 62 60 61 62 60 58 58 58 54 50 50 48 45 44 45 46 45 44 43 42 41 38 35 33
83 84 83 80 78 75 71 66 63 59 56 52 48 44 41 40 38 36 36 36 35 34 36 38 36 36 40 44 45 46 47 48 49 50 51 52 53 54 55 54 52 52 55 59 65 70 73 74 74 73 72 71 71 70 70 72 72 71 70 71 70 66 63 62 60 59 59 59 59 58 55 53 52 50 48 47 47 48 47 47 46 45 42 37 34
84 84 83 80 76 73 69 64 61 58 55 52 48 44 41 39 37 35 34 35 35 34 36 39 39 37 39 45 47 48 47 47 48 49 50 52 53 55 56 55 52 51 52 55 60 66 71 74 76 77 75 73 72 72 71 70 70 71 72 73 72 68 65 62 59 58 59 60 60 60 58 55 54 53 52 50 50 50 49 50 50 48 44 41 37
84 84 81 78 75 71 67 62 59 57 54 50 47 44 41 38 36 34 33 33 35 35 36 39 41 39 39 43 48 49 49 47 47 49 49 50 51 52 52 53 52 48 49 54 57 61 67 73 76 77 78 77 75 74 72 70 69 70 72 73 72 69 66 63 61 60 61 61 62 62 60 57 56 56 55 54 53 51 51 51 52 51 48 45 41
84 82 79 76 73 69 64 60 57 55 53 49 46 43 40 38 36 34 32 32 35 37 37 39 42 42 40 42 47 49 49 48 47 47 48 48 49 49 48 50 47 42 44 53 56 57 63 68 71 74 77 79 78 74 71 69 68 68 69 68 68 67 64 63 62 61 62 63 64 64 64 62 60 58 57 57 56 54 53 53 53 52 51 48 43
84 79 76 74 70 66 62 58 55 53 51 48 46 43 40 37 35 33 32 31 34 38 39 40 42 44 41 42 46 49 49 49 47 47 47 47 47 47 46 45 43 42 46 52 54 55 60 63 66 71 75 78 79 76 73 71 69 67 67 66 65 64 62 61 61 61 63 65 67 68 68 67 64 60 59 60 58 56 55 55 55 54 52 49 46
82 76 73 71 68 64 60 57 54 52 49 47 45 43 39 37 35 33 31 31 33 38 40 42 44 45 42 42 46 49 49 49 48 47 47 46 46 46 44 44 45 45 45 44 42 45 54 59 61 66 72 76 79 79 78 74 69 65 65 65 65 65 63 62 61 62 65 68 70 71 71 70 66 63 62 61 60 58 57 56 56 54 52 50 49
81 74 70 69 66 62 59 56 53 50 47 45 44 42 39 36 34 32 30 30 32 37 41 44 47 46 44 42 45 49 51 51 49 48 47 46 46 45 43 43 44 43 40 37 34 36 44 51 54 58 66 73 77 79 79 74 68 65 64 62 63 64 64 63 63 64 67 69 70 70 71 70 68 67 65 63 62 61 59 58 56 54 52 50 50
79 72 67 66 64 61 57 54 51 48 45 43 42 40 38 35 32 31 29 30 32 36 41 45 48 49 47 44 43 47 52 54 51 48 47 47 46 44 43 43 42 40 40 39 37 38 42 44 44 47 57 66 73 76 77 74 70 69 67 63 60 61 63 64 66 68 68 69 69 70 70 68 67 67 67 65 64 63 61 60 59 56 54 53 53
77 70 65 64 62 58 54 52 48 45 42 41 39 37 35 33 31 29 29 29 31 35 40 45 49 50 48 46 44 44 50 55 55 50 48 47 46 45 45 44 41 40 42 43 42 43 45 44 41 41 49 60 68 72 74 73 72 71 69 65 61 60 62 65 68 69 68 68 68 68 68 67 66 66 66 66 65 65 64 62 61 60 58 57 57
74 68 64 63 60 56 51 48 44 41 39 38 36 33 32 31 30 28 28 29 31 35 39 44 49 51 49 47 45 44 45 52 57 55 51 49 47 47 48 47 43 41 43 44 44 44 46 47 43 39 43 54 64 68 70 70 70 70 69 66 63 61 63 66 67 67 66 66 65 64 64 64 63 64 64 64 65 65 65 64 63 62 62 62 61
72 66 63 61 58 53 48 43 39 37 36 36 34 31 30 29 29 27 26 28 31 34 39 44 49 52 51 48 47 45 44 47 53 57 56 53 51 50 50 50 47 45 45 45 44 44 46 48 47 42 42 49 58 65 68 68 68 69 69 67 65 63 64 65 65 64 64 63 61 60 60 60 60 61 63 63 63 64 65 65 65 64 65 65 65
69 65 62 59 55 50 44 39 35 33 33 33 32 30 28 27 26 25 25 27 31 34 38 43 48 53 55 52 48 46 45 45 48 54 57 57 55 53 52 52 50 49 49 49 47 47 48 49 49 48 47 47 50 57 64 67 67 69 69 68 67 66 65 65 64 63 62 61 59 58 58 58 59 62 64 65 65 65 65 66 67 68 69 69 69
67 63 60 56 52 47 41 35 31 30 31 31 30 28 26 24 23 23 23 26 30 34 38 42 47 52 57 56 50 47 46 46 47 50 54 56 57 56 55 54 53 51 52 52 52 51 52 52 52 53 53 50 47 50 57 63 66 68 70 70 69 68 68 67 65 64 63 62 60 59 59 59 60 61 62 64 66 67 68 70 71 72 73 73 72
65 61 57 53 49 44 37 31 30 29 30 29 27 25 23 23 22 22 22 24 29 33 37 40 44 50 56 58 55 50 48 46 46 49 52 54 56 58 57 56 55 54 54 54 53 53 55 56 56 57 58 56 53 52 56 61 64 66 70 72 71 70 70 70 68 66 66 65 64 62 62 63 64 65 64 64 65 67 69 72 74 75 76 76 75
63 58 53 49 46 41 35 30 29 29 29 29 27 23 20 20 21 21 21 23 26 31 35 38 41 45 52 58 59 55 51 48 46 49 52 54 55 57 58 58 56 57 57 57 55 54 56 58 59 60 62 63 62 62 62 63 64 65 68 71 73 73 72 72 72 70 69 69 69 68 67 68 69 71 72 71 70 69 71 73 76 78 79 80 80
61 54 47 44 42 39 34 30 28 28 29 29 27 23 19 18 18 19 20 22 23 26 31 35 39 41 46 54 60 60 56 52 50 50 52 54 54 56 58 58 58 58 59 59 59 57 57 59 62 63 65 66 68 69 68 66 66 66 67 68 72 74 75 74 74 74 73 73 73 74 74 73 73 74 75 76 76 76 76 76 78 79 81 82 84
57 49 43 40 38 36 34 31 29 29 30 30 28 25 21 18 18 18 19 21 23 23 26 31 36 40 42 48 56 61 61 58 55 53 53 54 54 55 57 58 59 59 60 60 61 60 59 60 62 65 67 68 69 70 70 68 67 68 69 70 71 74 75 76 76 76 76 76 76 77 78 79 78 78 78 78 79 80 81 81 81 82 82 83 84
51 45 40 38 36 34 33 32 30 30 31 31 30 27 23 21 20 20 20 20 23 24 24 26 31 37 40 43 49 57 63 63 60 58 57 57 56 55 56 58 60 60 61 61 62 62 62 61 62 64 67 69 69 70 70 70 69 70 72 73 74 75 76 77 77 78 79 78 79 80 81 82 82 83 83 82 82 82 83 84 84 85 85 86 86
44 39 38 36 34 34 34 33 32 32 32 33 32 29 26 23 22 23 23 21 22 24 25 25 26 31 37 41 44 50 59 64 65 63 60 60 60 58 57 57 59 61 62 62 62 63 65 65 64 64 66 68 70 71 72 72 71 72 73 74 76 78 79 79 80 80 81 81 82 83 84 84 85 86 87 87 88 87 87 87 87 87 87 87 88
40 35 34 34 33 33 32 32 32 32 32 33 33 31 29 27 24 24 25 24 22 23 24 25 25 27 31 37 41 45 51 58 64 66 65 63 63 63 61 59 59 61 63 64 64 64 65 67 68 68 67 68 70 72 73 75 75 75 74 75 77 78 80 82 83 83 84 84 85 86 86 87 88 89 90 91 92 93 92 92 92 91 91 90 90
38 33 32 33 33 31 30 30 31 32 33 33 34 32 30 30 29 27 26 27 26 24 24 25 27 27 29 32 38 42 46 51 57 64 68 67 66 66 65 64 62 61 62 64 66 66 66 66 68 70 71 71 70 71 72 74 77 78 78 78 78 79 80 83 85 86 87 87 88 89 89 90 90 91 93 94 95 96 96 96 97 96 96 95 95
43 38 37 38 39 36 33 32 34 35 35 35 35 35 34 34 33 30 29 29 29 28 27 26 27 29 30 31 34 39 44 48 51 56 62 68 69 70 70 69 68 66 65 64 66 67 68 68 69 70 73 74 75 74 73 73 75 77 79 81 82 82 82 83 85 87 88 89 90 90 91 91 92 93 94 95 97 98 99 100 100 100 100 100 100
47 44 42 42 44 42 39 37 36 37 38 39 39 39 39 37 34 32 32 33 32 31 31 30 29 29 30 32 33 36 41 47 50 52 55 60 65 69 72 74 74 73 71 70 69 69 69 71 72 72 73 75 76 78 78 77 77 77 78 80 82 84 85 86 86 88 89 91 92 92 93 93 94 95 95 96 98 99 101 102 103 103 104 104 104
49 47 45 44 46 46 43 42 41 42 43 43 44 44 43 39 35 33 34 36 36 35 34 34 33 32 32 32 34 36 38 43 49 53 54 56 58 62 67 72 76 78 78 76 75 74 73 73 73 74 75 76 78 79 81 81 82 82 81 81 81 82 84 86 87 89 90 92 93 94 95 96 97 97 98 99 99 100 102 103 104 104 105 105 105
49 48 47 46 47 47 46 45 45 46 46 47 48 48 45 40 36 35 35 37 39 38 38 37 38 37 36 35 35 37 38 41 45 50 55 58 59 60 61 65 70 75 78 80 80 79 79 78 78 77 77 78 79 81 83 84 85 86 86 86 86 85 85 86 87 89 90 91 93 94 96 97 99 100 100 101 102 102 103 104 104 105 106 106 107
50 50 49 49 49 48 47 47 47 47 48 50 51 49 44 40 37 36 37 38 40 41 40 40 40 40 40 40 40 40 40 42 43 46 51 56 61 63 64 65 66 70 74 78 80 82 82 82 83 83 82 82 81 82 83 85 87 88 89 90 90 90 90 90 90 90 91 92 93 94 95 97 98 99 100 101 101 102 103 104 104 105 105 106 107
51 52 51 50 49 48 48 48 47 47 49 51 51 47 43 40 38 38 38 40 42 43 43 43 43 43 44 45 45 45 45 45 45 46 48 51 56 61 66 68 70 70 72 74 78 81 83 84 85 86 87 87 87 86 86 86 87 89 91 92 93 94 94 94 94 94 95 95 96 96 97 97 97 98 98 99 99 100 100 101 101 101 102 102 103
51 51 51 51 50 50 49 49 49 49 51 52 48 44 41 40 39 39 40 42 45 47 47 47 48 48 48 49 50 50 50 49 49 49 50 51 53 56 60 65 70 73 74 75 77 79 81 84 87 88 89 90 90 91 91 90 90 91 92 93 94 95 96 97 97 98 99 99 99 100 100 100 100 100 100 100 100 100 101 100 100 100 100 100 100
52 52 52 51 51 51 51 51 52 53 54 51 46 42 41 41 41 42 43 45 47 50 51 52 53 53 54 54 54 54 54 54 53 53 53 54 55 56 58 61 65 69 73 77 79 81 82 84 86 88 90 92 93 94 94 94 95 95 95 95 95 96 97 98 99 100 101 101 102 103 103 103 104 104 104 104 103 103 103 103 103 103 103 103 102
54 55 55 55 55 55 55 55 56 57 55 50 44 41 42 43 44 45 46 47 49 52 54 56 57 58 58 58 58 58 58 58 57 55 55 55 55 57 58 60 63 66 69 73 77 81 84 86 87 89 90 92 94 96 97 98 98 99 99 99 99 99 100 100 101 101 102 103 104 105 105 106 106 106 106 106 106 106 106 105 105 106 106 106 106
54 55 56 58 58 59 59 59 59 59 57 52 46 43 42 44 46 48 49 50 52 54 57 58 60 61 61 62 62 62 62 62 61 60 58 57 57 57 59 61 63 66 69 71 74 77 81 84 88 90 92 94 96 97 99 100 101 102 103 104 104 104 104 104 104 104 104 105 106 107 107 108 109 109 109 109 109 109 109 109 108 107 107 107 107
49 51 53 54 55 56 57 57 57 56 55 52 50 47 45 45 47 50 52 54 56 57 59 61 63 64 64 65 65 65 65 65 65 64 62 61 61 61 61 62 64 66 69 72 74 77 79 82 85 88 91 94 97 99 101 103 105 106 107 109 110 110 110 109 109 109 109 109 109 109 109 110 111 111 112 112 112 112 112 112 112 112 111 110 110
44 46 47 48 49 50 50 51 51 51 51 50 50 50 49 49 49 51 53 55 57 59 61 63 64 66 67 67 67 67 67 67 67 67 66 65 65 64 65 65 66 68 71 73 76 78 81 83 85 88 90 93 96 99 102 105 107 109 110 112 114 115 115 115 115 114 114 114 114 113 113 113 113 113 113 114 114 114 114 115 115 115 115 114 114
42 43 44 45 45 45 46 46 47 48 48 48 48 49 50 51 52 53 54 56 58 60 61 63 65 66 68 68 69 69 69 69 69 69 69 68 68 68 68 69 70 71 73 75 78 80 82 84 86 88 91 93 95 97 100 103 105 108 111 113 115 117 119 119 120 120 119 119 119 119 118 118 118 117 117 117 116 116 117 117 117 117 117 117 117
Wind_Direction
314 314 313 311 309 307 305 304 303 302 302 301 299 296 293 290 285 280 275 270 264 258 255 253 251 249 248 247 246 245 243 240 236 234 235 236 236 236 235 232 229 231 231 229 228 228 227 225 224 225 226 227 229 230 230 232 231 228 229 231 233 236 236 235 234 231 229 230 231 232 232 232 231 229 225 222 220 217 214 212 210 211 213 216 219
316 316 315 313 311 310 308 307 306 305 304 303 301 298 295 291 287 281 275 270 266 259 254 251 250 248 246 245 245 244 243 239 234 232 233 234 235 235 235 232 228 229 230 229 227 227 227 226 224 225 225 225 227 229 229 230 231 229 229 229 231 233 232 232 232 229 226 228 229 229 231 231 231 229 226 225 224 223 221 219 217 216 217 219 220
318 318 317 316 314 313 312 311 310 309 308 306 304 300 297 293 289 283 276 270 266 261 254 250 248 247 245 244 243 243 242 239 234 233 233 234 235 235 235 234 230 228 228 229 227 226 226 225 224 224 224 224 225 226 226 228 230 231 230 229 230 230 229 229 229 227 223 225 226 226 228 229 229 229 229 228 228 229 228 227 225 223 221 223 224
320 319 319 318 316 315 314 314 313 312 311 308 306 302 298 295 291 285 278 271 265 260 254 249 246 245 244 243 242 242 241 240 237 235 234 234 235 236 234 234 232 228 226 227 227 225 224 223 223 224 222 222 224 225 223 224 228 230 230 230 229 227 227 227 226 223 221 222 224 225 227 229 229 229 230 230 231 233 233 232 233 231 228 228 229
320 320 320 319 318 317 317 316 315 315 313 310 307 303 300 296 292 286 280 274 267 260 255 250 246 243 243 242 241 240 240 240 238 235 234 234 235 236 234 233 232 229 225 225 225 223 222 221 222 222 220 220 224 226 222 220 225 229 229 229 228 225 225 226 223 220 218 221 225 227 229 231 231 230 231 231 232 234 235 236 237 238 237 236 235
320 320 321 321 320 319 318 318 317 316 315 312 309 305 301 298 294 288 282 276 269 261 255 251 247 242 241 239 239 238 238 237 237 235 233 233 235 236 233 231 231 229 225 223 222 220 219 220 221 219 217 218 224 226 223 220 224 228 229 229 228 225 225 225 221 217 217 220 224 228 230 231 231 231 231 232 233 234 236 238 239 241 242 243 242
320 321 321 322 321 320 319 318 317 317 315 313 310 307 304 300 295 290 285 278 271 263 256 252 249 244 240 238 237 236 235 235 235 233 232 231 233 234 232 230 230 229 225 222 221 219 218 219 219 217 216 219 223 225 224 223 225 228 229 229 228 225 225 225 220 216 217 221 224 228 231 232 232 232 232 233 234 235 236 237 240 241 243 245 246
320 322 322 322 321 320 320 319 318 317 316 315 312 309 306 302 297 292 286 280 272 265 259 254 250 246 241 238 235 234 233 233 232 231 230 229 229 231 231 229 228 228 225 222 220 218 217 218 218 217 216 219 223 225 225 223 224 227 228 228 228 225 226 226 222 218 219 222 224 227 231 233 234 233 233 234 235 235 236 238 239 241 243 245 247
322 323 322 322 322 321 321 320 319 317 316 315 313 310 308 304 299 293 287 281 274 267 261 256 251 247 243 238 234 232 231 231 230 229 228 228 228 230 230 229 227 226 225 223 220 217 216 216 218 218 217 219 223 226 226 225 224 225 226 225 226 227 226 225 222 219 220 222 223 227 231 237 240 238 234 234 235 235 236 238 240 240 242 244 246
322 323 323 323 322 322 322 322 320 318 316 315 313 310 308 304 299 294 288 282 275 269 263 259 254 249 243 238 234 231 229 229 228 227 227 227 228 229 229 228 226 225 224 223 221 217 215 215 217 218 218 220 223 226 228 227 224 223 223 221 222 226 226 223 220 218 218 220 223 228 235 241 244 242 235 231 233 236 236 238 241 241 241 244 246
322 323 323 323 323 322 322 322 320 318 315 314 313 310 307 304 299 293 288 283 278 272 266 262 257 250 244 238 234 230 228 227 226 225 225 226 227 228 228 227 226 224 223 222 220 218 216 215 216 218 219 220 223 225 228 230 227 224 222 220 220 224 226 222 219 218 218 221 226 230 236 241 242 240 234 228 229 233 236 239 242 242 243 246 248
322 323 324 324 323 322 322 322 321 317 315 314 313 310 307 303 298 293 288 283 279 274 268 264 258 251 244 238 234 231 228 226 224 223 224 225 226 227 227 226 226 224 221 220 219 217 216 215 215 217 218 219 221 224 227 230 229 227 225 222 220 223 226 224 221 220 221 224 229 233 236 238 238 237 235 233 232 233 235 238 241 243 244 247 249
323 323 324 324 324 323 322 322 320 317 314 313 312 310 306 302 297 292 288 283 279 274 268 263 257 249 242 236 233 230 227 226 224 222 223 224 225 226 226 226 226 224 220 218 217 216 216 215 214 215 217 218 220 223 225 228 229 229 228 226 223 224 228 228 226 226 227 228 230 234 236 236 235 234 235 238 239 236 234 237 241 243 243 244 246
323 324 325 325 324 323 322 321 319 316 313 311 310 309 306 301 296 290 286 283 279 273 267 261 254 245 239 234 231 228 227 226 224 223 222 223 224 224 225 225 226 224 221 219 218 216 215 215 214 214 216 217 219 221 223 225 228 230 231 230 226 226 229 231 230 231 234 235 234 235 237 237 235 233 235 240 242 239 236 239 243 245 245 245 245
324 325 326 325 324 323 321 320 318 316 312 310 309 307 305 301 295 289 284 281 276 270 263 257 249 240 235 232 230 228 226 225 225 223 223 223 224 224 224 224 225 224 222 220 218 216 215 214 214 214 216 217 218 220 221 223 226 229 232 233 230 229 231 232 232 233 236 238 238 236 238 240 241 240 239 241 243 242 240 242 244 248 251 249 247
324 326 326 325 323 322 321 319 317 315 312 309 308 306 304 301 295 287 282 278 272 265 259 253 244 235 233 232 229 228 227 226 224 223 223 224 225 225 225 224 224 225 225 223 220 217 215 214 214 216 217 217 219 220 220 222 224 227 231 233 233 232 232 232 233 235 237 239 241 241 240 242 245 246 244 243 244 244 244 244 244 247 253 253 250
325 325 325 324 323 321 320 318 315 313 311 308 306 304 302 298 293 285 279 274 268 260 255 250 242 233 230 229 228 226 226 225 224 223 223 224 225 226 227 225 224 225 227 226 223 220 217 216 216 218 219 218 219 222 222 221 221 222 225 229 232 233 232 232 234 238 239 240 243 245 243 242 244 246 245 244 244 244 245 245 244 246 251 254 254
324 325 324 323 322 320 319 317 314 311 310 307 304 302 300 296 291 284 275 270 264 256 249 247 243 233 228 227 226 225 224 224 223 223 223 224 225 227 228 228 226 226 227 229 227 224 220 218 218 219 220 219 220 222 224 223 221 220 221 224 228 230 231 231 234 239 241 240 242 245 245 244 245 246 246 245 245 244 243 245 246 246 248 251 254
324 324 323 322 321 320 318 316 312 310 309 306 303 301 298 294 289 282 273 266 259 251 243 242 243 236 227 225 224 223 224 223 222 222 223 224 226 228 229 231 231 229 229 229 228 227 225 222 220 221 221 220 220 222 224 224 224 224 223 223 225 227 229 230 233 238 241 240 241 244 244 243 244 247 247 247 246 245 243 243 246 247 247 248 251
323 323 322 321 320 319 317 314 311 309 307 304 301 299 296 292 287 281 271 262 255 247 238 237 241 239 230 226 224 223 223 224 223 223 223 224 226 228 229 231 231 231 232 231 227 227 228 226 223 223 222 221 221 221 223 224 227 228 227 225 225 228 231 234 236 238 240 239 240 242 242 240 241 244 247 248 248 246 243 242 244 247 247 248 250
322 322 320 319 318 318 316 313 309 307 305 302 299 297 295 290 285 280 270 258 251 245 235 231 238 241 233 226 225 223 222 223 223 223 224 224 226 227 228 231 230 225 229 232 227 225 228 228 227 227 225 223 222 222 224 227 229 229 228 226 227 230 233 235 236 238 238 237 236 237 238 238 239 241 245 248 248 247 244 242 242 245 248 249 251
320 320 318 317 317 317 315 311 308 306 303 300 297 296 293 288 283 277 269 257 247 242 233 225 232 241 237 228 225 223 220 220 222 224 224 225 226 226 227 230 226 219 224 233 232 228 229 229 229 230 228 225 224 223 225 228 228 228 228 228 229 230 231 233 235 235 235 234 233 233 235 237 238 240 242 246 248 248 246 244 242 243 247 251 252
318 318 316 315 316 316 314 309 306 304 302 298 296 295 293 287 279 274 268 256 245 240 232 222 226 238 239 230 225 223 219 218 221 224 226 226 227 227 226 227 226 223 227 234 233 231 232 230 229 231 229 226 225 223 224 226 226 225 226 228 230 230 229 231 234 234 233 233 233 233 234 237 238 239 241 244 247 248 247 245 244 244 247 250 253
316 316 315 314 315 315 313 308 306 303 300 297 295 294 292 286 276 269 265 256 245 238 232 223 222 231 239 235 227 222 220 219 220 223 226 227 228 227 225 225 225 222 222 224 220 223 230 230 228 229 229 226 225 224 223 223 225 224 225 228 229 229 229 231 233 233 233 234 234 234 235 237 238 238 239 242 246 248 247 246 245 246 248 251 254
315 315 315 313 314 314 311 308 305 302 299 296 294 293 291 283 272 264 261 255 246 237 232 225 221 226 234 237 232 225 221 220 219 220 223 225 226 225 224 224 223 217 211 212 213 216 223 226 224 226 228 226 224 223 223 223 225 226 226 227 228 228 228 229 232 233 234 235 235 235 236 237 238 239 239 242 245 247 247 247 246 246 248 251 254
314 314 314 312 312 312 310 306 303 300 297 295 293 292 290 281 269 261 257 253 245 238 232 226 221 223 229 234 234 229 223 221 220 218 219 222 222 223 223 224 224 218 211 209 211 214 219 221 220 224 229 225 221 221 224 225 225 225 226 226 227 227 227 228 230 232 234 235 236 237 237 237 239 240 242 244 246 246 247 246 246 246 248 250 251
314 313 313 311 311 311 309 304 300 297 296 295 294 292 289 280 268 260 255 250 244 238 232 226 221 220 224 229 232 230 226 225 223 220 219 221 221 222 223 224 223 221 217 214 213 214 218 218 216 220 230 229 221 219 222 224 223 223 224 226 227 227 227 227 229 232 234 235 235 236 236 236 237 239 240 242 243 245 246 246 246 247 248 249 249
313 312 311 310 309 309 306 301 297 295 296 297 296 294 289 280 269 262 255 249 244 238 232 228 222 219 220 225 229 229 226 226 227 225 223 222 222 222 224 225 223 221 220 217 214 213 217 219 215 213 223 231 228 222 221 223 224 224 224 226 227 227 227 227 229 232 234 235 234 234 234 235 235 235 236 237 239 241 244 246 247 248 248 248 248
311 310 309 308 307 307 304 298 294 294 296 299 299 295 289 279 270 264 256 248 243 238 233 229 224 219 219 222 226 228 227 225 226 228 227 225 224 223 224 226 225 224 223 220 216 213 215 217 214 210 213 224 231 230 226 224 224 225 225 226 227 228 228 228 230 232 234 235 233 232 233 234 234 234 234 235 237 239 242 244 246 247 247 247 247
309 308 307 306 305 304 300 296 293 293 296 300 300 296 288 279 269 263 257 248 243 238 234 231 227 221 219 221 223 226 227 225 224 227 229 227 225 224 225 227 227 227 227 226 224 221 219 215 212 209 210 215 223 231 232 230 227 226 227 227 228 229 230 230 230 232 234 236 235 234 234 235 234 234 235 235 236 237 239 240 241 243 244 245 246
308 306 305 303 302 300 298 295 294 294 297 300 300 295 288 280 270 261 256 250 245 240 236 232 229 224 221 220 221 224 226 225 223 225 228 229 228 226 225 227 228 228 228 230 229 228 226 222 214 210 209 211 213 219 227 231 230 229 229 229 229 230 232 233 233 234 235 236 237 236 236 237 236 235 234 235 235 236 236 237 238 240 242 243 245
306 304 302 300 299 298 297 296 295 296 299 302 302 297 290 283 276 267 261 255 248 243 240 236 232 228 224 221 220 222 224 225 223 223 226 229 229 228 226 226 227 228 228 230 231 230 228 226 221 215 211 210 211 214 222 228 230 230 231 231 232 232 232 233 235 236 237 237 238 237 237 237 237 236 235 234 234 234 235 237 238 239 241 242 244
305 302 298 297 297 297 297 297 297 297 301 305 306 304 298 289 280 273 268 264 255 247 242 239 236 233 227 223 221 221 223 225 223 221 222 226 229 230 228 227 227 228 229 230 231 232 230 228 226 222 217 214 214 218 223 228 229 229 229 231 233 234 234 234 235 236 237 238 239 239 238 238 239 239 239 237 236 235 235 236 237 238 240 242 243
302 300 296 293 293 294 295 297 298 299 303 307 309 310 306 296 283 272 267 267 264 255 244 239 238 236 232 226 222 221 222 224 224 221 220 222 225 228 229 228 227 228 229 230 231 231 232 231 229 227 224 221 221 222 225 227 229 229 229 229 231 234 236 237 237 237 237 238 239 239 240 240 241 241 241 241 240 239 237 237 237 239 240 241 243
300 298 295 292 292 293 294 296 299 302 305 306 308 310 308 300 288 276 267 263 264 262 253 242 237 237 235 231 226 222 221 223 225 223 221 220 221 224 227 228 228 228 229 230 231 231 231 232 232 231 229 227 226 225 226 227 229 230 230 230 230 231 234 236 237 237 237 238 238 238 240 241 242 242 243 243 243 243 242 240 240 240 241 242 243
299 298 295 291 290 291 292 295 300 304 306 305 306 307 307 302 291 280 273 266 263 263 261 253 243 238 236 234 231 226 223 223 225 226 224 221 220 221 222 225 228 229 229 230 231 233 232 232 232 232 233 232 231 229 228 228 229 230 231 231 231 232 233 234 235 236 237 237 238 238 239 239 240 242 242 243 243 243 243 243 242 242 243 243 244
302 300 294 291 290 290 291 295 299 302 303 304 304 305 306 305 296 282 274 271 267 263 264 262 255 245 239 236 234 231 227 225 225 227 227 225 222 222 221 222 224 227 229 230 231 233 235 235 233 232 232 233 234 233 232 231 230 230 231 231 231 232 233 234 235 236 236 237 238 239 239 240 240 241 242 243 243 244 244 244 244 244 245 245 246
295 294 290 290 294 296 295 295 298 300 300 300 300 301 303 305 301 287 274 269 268 265 262 262 259 253 245 238 234 233 232 229 227 227 228 228 226 224 224 223 223 224 227 229 231 232 234 236 236 235 233 232 232 234 235 235 234 233 233 232 232 232 233 234 235 236 237 237 238 239 240 241 241 242 243 244 245 245 245 246 246 247 247 248 248
282 283 283 287 293 296 295 293 294 296 297 298 298 299 298 298 297 287 271 263 262 261 259 259 258 256 252 245 237 233 232 232 231 229 228 229 229 228 228 227 227 225 225 226 229 231 232 234 236 237 237 235 233 233 233 235 236 236 236 235 234 234 234 235 236 237 237 238 238 239 240 241 242 243 244 245 245 246 247 247 248 248 249 250 251
276 278 280 282 288 293 295 294 293 294 297 298 298 298 297 293 288 279 266 258 256 257 258 259 258 256 253 250 245 238 233 232 232 232 231 230 230 230 230 231 231 231 230 228 228 229 231 232 234 236 237 238 237 236 234 234 234 235 236 237 236 236 236 236 237 237 238 239 239 240 240 241 242 243 244 245 246 247 247 248 249 249 250 251 252
273 276 278 280 285 290 293 294 293 294 296 296 297 297 295 288 280 272 263 255 253 254 257 259 260 258 254 251 248 244 239 234 233 233 233 233 232 232 231 231 233 234 234 234 232 231 231 232 233 235 236 237 238 239 238 237 235 235 235 236 237 237 237 237 238 238 239 240 240 241 241 242 243 243 244 245 246 247 248 249 250 250 251 252 253
273 275 276 278 281 285 288 289 291 291 292 293 295 295 291 283 274 268 262 255 252 252 255 258 260 259 258 255 251 246 242 239 235 233 233 234 234 234 234 233 233 234 235 236 236 236 235 234 234 234 235 237 238 239 240 240 239 238 237 237 236 237 237 238 238 239 239 240 240 241 242 243 244 244 245 246 247 248 249 250 251 251 252 253 253
271 273 275 277 278 281 282 285 286 287 289 291 292 291 287 279 270 266 263 258 253 253 254 255 256 257 258 258 257 252 248 244 240 237 235 234 234 235 235 236 235 235 235 235 236 237 238 238 237 236 236 236 237 238 239 240 241 241 240 240 239 239 238 238 238 239 239 240 240 241 242 243 244 245 246 247 248 249 249 250 251 252 253 254 255
270 272 275 276 278 279 281 283 285 286 289 291 290 287 282 275 268 265 263 260 256 254 254 253 253 254 257 259 260 259 255 251 247 243 240 238 236 236 236 237 237 237 237 237 237 237 237 238 239 239 239 238 238 238 238 239 240 241 242 242 242 242 241 240 240 239 239 240 241 241 241 242 243 244 245 246 247 248 249 251 251 252 253 254 255
272 274 276 277 279 281 282 284 286 288 290 291 289 283 277 272 267 264 263 261 257 255 254 254 253 254 256 258 260 260 259 257 253 250 247 244 242 240 238 238 239 239 239 240 240 239 238 238 238 239 239 240 240 240 239 239 240 240 241 242 243 243 243 243 243 242 242 242 242 242 242 242 243 243 244 245 246 247 248 249 250 251 252 253 254
276 277 279 280 281 282 283 284 286 288 289 290 287 281 274 269 265 263 262 260 257 255 254 254 255 255 256 257 259 261 261 261 259 256 253 250 247 245 243 242 241 241 240 241 241 241 241 240 239 239 239 239 240 240 241 241 241 241 241 241 242 243 244 244 244 244 244 244 244 244 244 244 244 244 245 245 246 247 247 248 249 249 250 251 252
276 277 279 280 281 282 283 285 287 288 288 289 287 280 273 267 264 262 262 260 259 257 255 255 256 257 258 259 260 261 262 262 263 262 259 257 255 252 250 248 246 244 243 242 242 242 242 242 242 241 240 240 239 239 240 240 241 241 241 241 241 241 242 243 244 244 245 245 245 245 245 245 246 246 246 246 247 247 248 249 249 250 251 251 252
276 277 277 278 279 280 282 283 285 286 286 286 285 280 272 267 264 263 262 261 260 259 258 258 258 259 260 262 263 263 263 264 265 265 263 261 260 258 256 255 252 250 248 246 245 244 243 243 243 243 242 242 241 240 240 239 240 240 241 241 241 241 241 241 242 243 243 244 245 246 247 247 247 247 247 247 248 248 248 249 249 250 251 251 252
276 276 277 277 278 279 280 280 281 282 282 283 282 280 276 271 266 263 262 262 262 261 260 260 260 261 263 264 266 266 266 266 266 266 265 263 262 260 258 257 256 254 253 251 249 247 246 245 245 244 244 243 243 242 241 241 240 240 240 241 241 241 241 241 241 241 242 243 244 245 246 247 247 248 248 248 249 249 249 250 250 250 251 251 251
277 277 276 277 277 278 278 278 279 279 279 279 279 279 277 275 272 269 266 265 264 264 264 263 263 264 265 266 267 268 268 267 267 266 265 264 262 261 259 257 255 254 253 252 252 251 249 248 247 246 246 245 244 244 243 242 242 241 241 241 241 241 242 242 242 242 242 242 243 243 244 245 246 247 248 249 249 250 250 251 251 251 252 252 252
278 277 276 275 275 275 276 276 276 276 276 276 276 276 275 274 273 272 271 269 268 267 267 267 266 266 266 267 268 268 268 267 267 266 266 265 263 262 260 258 256 254 253 252 252 252 252 251 251 250 249 248 248 247 246 246 245 244 244 243 243 243 243 243 243 243 243 243 243 243 244 244 245 246 247 248 249 249 250 251 251 252 252 252 253
Height
10803 10798 10792 10787 10781 10775 10770 10766 10761 10757 10752 10749 10745 10742 10739 10737 10736 10734 10733 10734 10735 10736 10738 10739 10741 10743 10745 10746 10748 10752 10755 10759 10763 10767 10770 10772 10775 10778 10782 10787 10792 10794 10797 10802 10807 10812 10817 10822 10827 10830 10834 10840 10844 10846 10849 10852 10855 10858 10860 10863 10866 10868 10871 10873 10873 10875 10878 10880 10882 10885 10887 10889 10890 10892 10894 10896 10898 10899 10900 10902 10903 10904 10906 10908 10909
10794 10789 10783 10778 10772 10766 10761 10756 10751 10747 10742 10738 10734 10730 10728 10727 10725 10724 10723 10723 10723 10725 10727 10728 10730 10732 10734 10736 10739 10742 10745 10749 10754 10759 10762 10764 10766 10769 10773 10779 10784 10786 10790 10795 10801 10806 10811 10817 10821 10825 10830 10835 10839 10842 10845 10848 10851 10854 10856 10859 10861 10864 10867 10868 10870 10872 10875 10877 10879 10882 10884 10885 10887 10889 10892 10894 10896 10897 10898 10899 10901 10902 10903 10905 10907
10785 10780 10774 10768 10763 10757 10751 10746 10741 10736 10732 10727 10723 10719 10717 10715 10714 10713 10712 10713 10713 10715 10716 10718 10719 10721 10723 10726 10730 10732 10735 10740 10745 10750 10753 10756 10759 10763 10767 10771 10775 10779 10784 10790 10795 10800 10806 10811 10816 10820 10825 10829 10833 10836 10840 10844 10847 10850 10852 10854 10857 10860 10862 10864 10867 10870 10873 10874 10876 10878 10880 10882 10884 10886 10888 10891 10893 10894 10896 10897 10898 10899 10901 10902 10904
10776 10771 10765 10759 10753 10747 10742 10736 10730 10726 10721 10717 10713 10709 10706 10704 10703 10702 10702 10703 10704 10704 10705 10707 10709 10711 10713 10716 10720 10723 10726 10731 10736 10741 10745 10748 10752 10757 10760 10763 10766 10771 10778 10784 10788 10794 10800 10806 10810 10814 10819 10823 10827 10831 10835 10840 10843 10845 10848 10850 10853 10855 10857 10860 10864 10867 10870 10871 10872 10874 10877 10879 10881 10883 10885 10887 10889 10891 10892 10894 10895 10897 10899 10900 10902
10768 10762 10756 10750 10744 10738 10732 10727 10721 10716 10711 10707 10703 10699 10696 10694 10693 10692 10691 10692 10694 10694 10695 10696 10699 10701 10704 10707 10710 10714 10717 10721 10727 10733 10738 10741 10745 10749 10753 10756 10758 10764 10771 10777 10782 10787 10792 10799 10803 10808 10813 10818 10821 10825 10830 10835 10838 10841 10843 10846 10849 10851 10853 10856 10860 10863 10866 10867 10868 10871 10874 10876 10878 10880 10881 10883 10885 10887 10888 10890 10892 10894 10896 10897 10899
10760 10755 10749 10742 10736 10730 10724 10719 10712 10707 10702 10697 10693 10690 10687 10685 10683 10683 10682 10682 10684 10685 10685 10687 10689 10692 10695 10698 10701 10704 10708 10712 10717 10723 10729 10734 10737 10741 10745 10748 10751 10756 10763 10769 10775 10780 10785 10791 10796 10801 10807 10811 10814 10818 10823 10829 10833 10836 10839 10842 10844 10846 10849 10852 10855 10859 10862 10863 10865 10868 10870 10872 10874 10876 10877 10879 10881 10883 10884 10886 10888 10890 10892 10894 10895
10754 10748 10741 10735 10729 10723 10717 10711 10705 10699 10693 10688 10684 10681 10678 10676 10674 10674 10673 10673 10674 10676 10677 10678 10680 10683 10686 10689 10692 10695 10699 10703 10708 10714 10721 10726 10730 10732 10736 10740 10744 10749 10755 10762 10768 10774 10779 10785 10790 10795 10800 10804 10807 10811 10817 10823 10828 10831 10834 10837 10840 10842 10845 10847 10850 10854 10857 10859 10861 10864 10865 10867 10869 10871 10873 10875 10876 10878 10880 10882 10884 10885 10887 10889 10891
10747 10741 10734 10728 10722 10716 10710 10705 10698 10691 10686 10680 10676 10673 10670 10667 10666 10666 10665 10665 10665 10667 10669 10670 10672 10674 10677 10680 10683 10687 10691 10695 10699 10705 10712 10717 10721 10724 10728 10733 10737 10742 10748 10755 10762 10768 10773 10778 10784 10789 10795 10798 10801 10804 10810 10816 10822 10826 10829 10833 10836 10838 10841 10843 10846 10849 10851 10853 10856 10858 10860 10862 10864 10866 10868 10870 10871 10873 10876 10878 10878 10880 10883 10885 10887
10738 10733 10727 10721 10715 10708 10703 10697 10691 10684 10679 10674 10669 10666 10663 10660 10658 10658 10657 10657 10657 10659 10661 10662 10664 10667 10669 10671 10675 10678 10682 10686 10691 10697 10703 10708 10712 10717 10721 10726 10731 10735 10741 10747 10754 10760 10766 10772 10777 10782 10788 10792 10794 10798 10804 10811 10816 10820 10824 10828 10831 10834 10836 10838 10841 10843 10845 10848 10850 10853 10856 10857 10858 10861 10863 10865 10866 10869 10872 10872 10873 10876 10879 10880 10882
10730 10725 10720 10714 10707 10700 10694 10689 10683 10677 10672 10668 10663 10659 10656 10654 10652 10651 10650 10649 10650 10651 10653 10655 10657 10659 10661 10663 10666 10670 10673 10678 10683 10689 10695 10700 10705 10710 10715 10719 10724 10728 10733 10739 10746 10753 10760 10766 10771 10776 10781 10786 10789 10793 10798 10804 10810 10815 10819 10823 10826 10829 10831 10833 10835 10837 10840 10842 10845 10848 10851 10852 10853 10855 10858 10860 10862 10865 10867 10868 10869 10872 10874 10875 10877
10723 10719 10713 10707 10700 10693 10687 10682 10676 10670 10666 10662 10658 10653 10650 10648 10646 10645 10644 10643 10643 10645 10647 10649 10650 10652 10654 10656 10659 10662 10666 10671 10676 10682 10687 10692 10698 10704 10708 10713 10717 10721 10726 10733 10740 10747 10753 10759 10764 10770 10776 10780 10784 10788 10792 10797 10803 10808 10812 10816 10820 10823 10826 10828 10831 10832 10835 10837 10840 10844 10847 10848 10848 10850 10853 10856 10858 10860 10862 10863 10864 10867 10869 10870 10872
10717 10712 10706 10700 10693 10686 10680 10675 10670 10664 10659 10655 10652 10648 10645 10642 10641 10639 10638 10637 10637 10639 10640 10642 10644 10646 10648 10650 10652 10656 10660 10665 10670 10675 10680 10686 10692 10697 10702 10706 10711 10715 10720 10727 10734 10740 10746 10752 10758 10763 10769 10774 10778 10782 10786 10790 10795 10800 10805 10809 10813 10817 10820 10823 10826 10827 10830 10833 10835 10839 10841 10842 10844 10847 10849 10851 10854 10855 10856 10858 10860 10862 10864 10865 10867
10710 10705 10699 10693 10686 10678 10672 10668 10663 10658 10653 10649 10646 10642 10640 10637 10635 10634 10632 10631 10632 10633 10635 10636 10638 10640 10642 10644 10647 10651 10655 10660 10665 10670 10676 10681 10687 10691 10696 10700 10704 10709 10715 10721 10727 10733 10739 10745 10751 10757 10763 10768 10772 10777 10780 10784 10788 10793 10797 10802 10807 10812 10815 10818 10821 10823 10825 10828 10831 10834 10836 10837 10839 10842 10845 10847 10849 10850 10851 10853 10855 10857 10859 10861 10862
10704 10698 10691 10684 10678 10671 10665 10660 10656 10652 10647 10643 10640 10636 10634 10632 10629 10628 10627 10626 10627 10628 10629 10631 10633 10635 10637 10639 10642 10646 10650 10655 10660 10666 10672 10677 10682 10687 10691 10695 10699 10704 10710 10715 10721 10727 10733 10739 10744 10750 10756 10762 10767 10771 10774 10778 10781 10785 10790 10796 10802 10806 10809 10813 10816 10818 10820 10822 10826 10828 10830 10831 10834 10837 10841 10844 10844 10844 10846 10848 10850 10852 10855 10857 10859
10697 10691 10683 10676 10670 10664 10657 10652 10649 10645 10641 10637 10634 10631 10628 10626 10624 10622 10621 10621 10622 10623 10624 10626 10628 10630 10632 10635 10638 10642 10647 10652 10657 10663 10668 10673 10678 10682 10686 10690 10695 10700 10705 10709 10714 10720 10726 10732 10738 10745 10751 10756 10761 10764 10767 10771 10776 10780 10785 10790 10795 10800 10804 10807 10809 10812 10814 10816 10819 10822 10825 10827 10830 10834 10837 10839 10838 10839 10841 10843 10844 10848 10850 10852 10854
10690 10684 10677 10669 10662 10657 10651 10645 10641 10638 10634 10631 10628 10625 10622 10620 10619 10617 10615 10615 10616 10617 10618 10621 10624 10626 10628 10632 10636 10640 10644 10649 10654 10660 10665 10669 10674 10677 10681 10686 10691 10695 10698 10702 10706 10712 10719 10726 10733 10739 10744 10749 10753 10757 10761 10766 10771 10776 10780 10784 10788 10793 10797 10799 10802 10806 10810 10812 10814 10817 10820 10823 10826 10829 10832 10832 10833 10835 10837 10837 10839 10842 10845 10848 10850
10680 10676 10671 10664 10656 10650 10645 10640 10635 10631 10628 10625 10622 10620 10617 10615 10613 10612 10610 10610 10611 10612 10613 10615 10619 10622 10625 10629 10633 10637 10642 10646 10651 10656 10661 10665 10669 10672 10675 10680 10686 10689 10692 10695 10701 10707 10714 10721 10726 10730 10734 10740 10746 10750 10754 10758 10764 10769 10773 10777 10781 10786 10790 10793 10797 10801 10805 10807 10809 10812 10815 10818 10821 10823 10825 10827 10829 10831 10832 10832 10834 10837 10839 10842 10845
10672 10666 10661 10656 10649 10643 10638 10633 10629 10625 10621 10619 10616 10613 10611 10609 10607 10607 10606 10605 10606 10607 10609 10610 10614 10619 10622 10626 10630 10634 10638 10643 10648 10652 10657 10661 10665 10667 10670 10675 10680 10684 10687 10691 10695 10701 10707 10713 10718 10721 10725 10732 10738 10742 10745 10750 10756 10762 10766 10770 10776 10780 10784 10788 10793 10796 10798 10801 10804 10807 10809 10812 10815 10817 10819 10822 10824 10825 10826 10827 10829 10830 10833 10836 10839
10664 10658 10652 10647 10641 10636 10631 10626 10621 10617 10614 10612 10609 10607 10605 10603 10602 10601 10601 10600 10601 10603 10605 10606 10609 10614 10619 10622 10626 10631 10635 10639 10645 10649 10653 10657 10660 10663 10667 10672 10676 10681 10684 10686 10690 10694 10699 10703 10707 10712 10717 10723 10729 10733 10737 10742 10748 10754 10759 10764 10770 10775 10778 10783 10788 10790 10792 10795 10798 10801 10803 10806 10809 10811 10813 10816 10818 10819 10820 10822 10823 10824 10827 10829 10832
10657 10651 10644 10638 10634 10629 10625 10619 10614 10610 10607 10605 10603 10601 10598 10597 10596 10595 10595 10595 10596 10598 10601 10603 10605 10609 10615 10619 10623 10627 10631 10636 10641 10645 10649 10653 10656 10660 10665 10668 10673 10677 10678 10679 10683 10688 10690 10693 10699 10704 10709 10715 10719 10724 10730 10735 10741 10747 10753 10759 10765 10769 10773 10777 10780 10783 10785 10789 10791 10794 10796 10799 10802 10804 10807 10809 10811 10813 10814 10815 10816 10818 10820 10822 10826
10649 10644 10636 10630 10626 10623 10618 10613 10608 10604 10600 10598 10596 10595 10592 10590 10589 10589 10590 10590 10591 10593 10596 10599 10601 10604 10610 10615 10618 10622 10628 10633 10637 10641 10645 10648 10652 10657 10660 10664 10669 10673 10671 10671 10677 10682 10683 10689 10695 10700 10703 10707 10713 10720 10726 10731 10735 10741 10747 10754 10759 10762 10766 10768 10771 10776 10780 10782 10784 10786 10788 10791 10794 10797 10800 10802 10804 10806 10808 10808 10810 10812 10814 10816 10820
10641 10637 10629 10622 10619 10616 10611 10606 10602 10598 10594 10592 10590 10588 10587 10584 10583 10583 10584 10585 10586 10588 10591 10595 10597 10598 10604 10610 10613 10617 10624 10629 10633 10637 10640 10644 10647 10652 10656 10659 10663 10665 10664 10667 10673 10676 10679 10685 10690 10691 10694 10700 10707 10715 10720 10723 10728 10734 10740 10746 10750 10753 10757 10760 10764 10770 10773 10774 10775 10778 10780 10783 10787 10790 10794 10795 10797 10800 10801 10802 10804 10806 10809 10811 10813
10632 10629 10622 10614 10611 10609 10604 10599 10595 10591 10588 10585 10583 10582 10581 10579 10577 10577 10578 10579 10581 10582 10586 10591 10593 10594 10598 10604 10608 10612 10619 10625 10629 10632 10636 10639 10642 10646 10650 10653 10655 10658 10661 10665 10669 10671 10673 10678 10682 10684 10688 10694 10700 10707 10711 10715 10721 10727 10733 10737 10741 10744 10748 10752 10757 10762 10765 10765 10768 10771 10774 10776 10780 10783 10786 10789 10790 10792 10794 10796 10798 10801 10803 10805 10806
10622 10620 10614 10607 10603 10601 10597 10592 10588 10585 10582 10580 10577 10576 10574 10573 10572 10571 10572 10573 10575 10577 10581 10585 10588 10589 10592 10598 10602 10607 10613 10619 10624 10627 10631 10634 10637 10641 10644 10647 10650 10654 10657 10661 10664 10666 10667 10671 10675 10678 10682 10687 10693 10699 10704 10709 10715 10721 10725 10729 10733 10736 10741 10746 10749 10753 10755 10757 10760 10764 10767 10770 10772 10775 10778 10781 10783 10785 10787 10789 10792 10794 10796 10798 10799
10612 10610 10606 10599 10594 10593 10590 10585 10582 10579 10576 10574 10572 10570 10568 10567 10566 10566 10567 10568 10570 10572 10575 10579 10583 10586 10588 10592 10597 10601 10606 10612 10617 10622 10626 10629 10632 10635 10638 10641 10645 10649 10653 10655 10659 10662 10663 10666 10670 10672 10674 10679 10686 10691 10697 10703 10708 10713 10718 10722 10726 10730 10735 10739 10741 10743 10746 10749 10752 10755 10759 10762 10764 10767 10770 10772 10775 10777 10780 10782 10785 10787 10790 10792 10793
10602 10600 10596 10590 10586 10585 10583 10578 10575 10572 10570 10568 10566 10564 10563 10562 10561 10561 10561 10562 10564 10566 10569 10574 10578 10581 10584 10587 10591 10596 10600 10605 10610 10616 10620 10624 10627 10630 10633 10636 10640 10644 10647 10650 10653 10656 10658 10661 10664 10666 10668 10671 10677 10684 10690 10695 10700 10705 10710 10715 10720 10724 10728 10731 10733 10735 10738 10741 10744 10747 10751 10754 10757 10759 10762 10764 10766 10769 10772 10775 10777 10780 10783 10785 10787
10592 10590 10586 10581 10578 10578 10576 10572 10568 10566 10564 10562 10560 10559 10558 10557 10556 10556 10556 10557 10558 10561 10564 10568 10572 10576 10579 10582 10586 10591 10595 10599 10604 10609 10614 10618 10622 10624 10627 10631 10634 10638 10641 10644 10648 10651 10653 10656 10659 10662 10664 10665 10670 10676 10682 10687 10692 10698 10703 10707 10712 10716 10720 10723 10725 10727 10729 10733 10736 10739 10742 10745 10748 10751 10753 10755 10757 10760 10764 10767 10770 10772 10775 10778 10780
10582 10580 10577 10573 10570 10570 10569 10565 10562 10560 10558 10556 10554 10553 10553 10552 10552 10552 10552 10552 10553 10555 10558 10561 10566 10570 10574 10577 10581 10585 10590 10594 10598 10602 10607 10612 10616 10619 10622 10625 10629 10632 10635 10638 10642 10645 10648 10651 10655 10659 10661 10661 10664 10669 10674 10679 10685 10690 10696 10701 10705 10709 10713 10716 10718 10720 10722 10726 10729 10731 10733 10737 10740 10742 10744 10746 10749 10752 10756 10759 10761 10764 10767 10769 10771
10573 10570 10568 10565 10562 10562 10561 10558 10556 10554 10553 10551 10549 10548 10547 10547 10547 10547 10547 10547 10548 10550 10552 10555 10559 10564 10568 10571 10575 10579 10584 10588 10592 10595 10600 10605 10609 10613 10616 10619 10623 10626 10629 10632 10636 10639 10642 10646 10650 10654 10657 10659 10661 10663 10667 10672 10678 10682 10688 10693 10697 10702 10706 10710 10712 10714 10715 10719 10722 10723 10725 10729 10733 10734 10736 10739 10741 10744 10747 10750 10753 10756 10758 10760 10763
10564 10561 10558 10556 10554 10553 10553 10552 10550 10549 10548 10546 10544 10543 10542 10542 10542 10542 10542 10542 10542 10544 10546 10549 10553 10557 10562 10566 10570 10573 10577 10582 10587 10590 10593 10597 10602 10606 10610 10613 10616 10620 10623 10626 10630 10633 10636 10639 10644 10648 10651 10655 10658 10660 10662 10665 10670 10675 10680 10685 10689 10694 10698 10701 10704 10707 10709 10711 10714 10715 10718 10721 10725 10727 10729 10731 10733 10736 10739 10742 10744 10747 10749 10752 10754
10555 10553 10550 10547 10546 10545 10546 10545 10544 10543 10542 10542 10540 10539 10537 10537 10537 10537 10538 10538 10538 10539 10541 10544 10547 10551 10556 10560 10564 10568 10572 10577 10581 10584 10587 10590 10594 10598 10602 10606 10609 10613 10616 10620 10624 10627 10630 10633 10636 10640 10644 10647 10651 10654 10655 10658 10662 10667 10672 10676 10681 10685 10689 10693 10696 10699 10702 10704 10706 10708 10711 10713 10716 10718 10720 10722 10725 10728 10730 10732 10735 10737 10740 10742 10744
10546 10545 10542 10539 10538 10537 10538 10539 10538 10537 10537 10537 10536 10535 10534 10533 10533 10533 10533 10534 10534 10535 10537 10539 10542 10546 10550 10554 10559 10563 10567 10571 10575 10579 10582 10584 10587 10591 10595 10599 10602 10606 10609 10612 10616 10620 10623 10626 10629 10632 10635 10638 10641 10644 10646 10650 10654 10659 10663 10667 10671 10676 10680 10685 10688 10691 10694 10696 10698 10700 10702 10704 10706 10708 10710 10712 10715 10718 10720 10723 10725 10727 10729 10732 10734
10538 10537 10535 10532 10530 10530 10531 10532 10532 10532 10532 10532 10531 10531 10530 10530 10530 10529 10529 10529 10530 10532 10533 10535 10537 10540 10544 10548 10552 10557 10561 10565 10569 10573 10577 10579 10581 10585 10588 10592 10596 10599 10602 10605 10608 10612 10615 10619 10622 10625 10628 10630 10633 10635 10638 10641 10645 10650 10654 10658 10662 10666 10670 10674 10678 10681 10684 10686 10688 10690 10692 10694 10696 10698 10700 10703 10706 10708 10710 10712 10714 10716 10719 10722 10724
10530 10529 10527 10525 10524 10524 10524 10525 10526 10527 10527 10527 10526 10526 10526 10526 10526 10526 10526 10525 10526 10527 10529 10531 10532 10534 10537 10541 10545 10550 10554 10558 10562 10566 10570 10574 10576 10579 10582 10586 10589 10592 10594 10597 10600 10604 10608 10611 10615 10618 10621 10623 10626 10628 10631 10634 10636 10640 10644 10649 10652 10656 10659 10663 10667 10671 10674 10676 10679 10681 10682 10684 10687 10689 10691 10694 10697 10699 10700 10702 10704 10707 10710 10711 10712
10523 10521 10520 10518 10518 10519 10519 10520 10521 10521 10522 10521 10521 10521 10521 10521 10521 10521 10521 10522 10522 10522 10523 10526 10527 10529 10531 10534 10538 10542 10546 10550 10554 10557 10562 10566 10570 10572 10575 10578 10581 10585 10587 10590 10593 10596 10600 10604 10607 10611 10614 10617 10620 10622 10624 10627 10629 10631 10635 10638 10642 10646 10649 10652 10655 10658 10662 10665 10667 10669 10672 10674 10677 10679 10682 10684 10687 10689 10692 10693 10695 10696 10698 10700 10701
10515 10514 10513 10512 10513 10513 10513 10514 10515 10516 10516 10515 10515 10515 10516 10516 10516 10517 10517 10518 10518 10519 10519 10521 10523 10524 10526 10528 10531 10535 10538 10542 10545 10549 10553 10557 10561 10565 10568 10571 10574 10577 10580 10582 10585 10588 10591 10595 10599 10602 10605 10609 10612 10615 10617 10619 10622 10624 10626 10629 10633 10636 10638 10641 10644 10647 10650 10652 10654 10657 10660 10663 10665 10667 10669 10672 10674 10677 10680 10682 10683 10685 10687 10689 10691
10508 10508 10507 10507 10507 10508 10509 10510 10510 10510 10511 10510 10510 10510 10510 10511 10512 10512 10513 10513 10514 10515 10515 10516 10517 10519 10521 10523 10525 10528 10531 10534 10538 10541 10545 10548 10552 10556 10560 10563 10566 10568 10571 10574 10577 10580 10582 10585 10589 10592 10595 10598 10602 10605 10608 10611 10614 10616 10618 10621 10623 10626 10628 10631 10633 10636 10638 10640 10643 10645 10648 10650 10653 10655 10657 10659 10661 10664 10667 10669 10671 10673 10676 10678 10680
10503 10503 10502 10502 10503 10504 10505 10505 10505 10505 10506 10506 10506 10506 10506 10506 10507 10508 10509 10509 10510 10511 10511 10511 10512 10513 10515 10517 10519 10521 10524 10527 10530 10533 10536 10540 10544 10548 10551 10554 10557 10560 10563 10566 10569 10572 10574 10576 10579 10582 10585 10588 10592 10595 10598 10601 10604 10607 10609 10612 10615 10617 10619 10621 10623 10626 10628 10630 10632 10634 10636 10639 10641 10643 10645 10647 10649 10651 10654 10657 10659 10661 10664 10666 10668
10498 10498 10497 10497 10498 10499 10500 10500 10500 10500 10500 10500 10500 10501 10501 10502 10502 10502 10503 10504 10505 10505 10506 10507 10507 10508 10509 10510 10512 10515 10517 10519 10521 10524 10527 10531 10535 10538 10541 10544 10548 10551 10553 10556 10559 10562 10565 10567 10569 10571 10574 10578 10582 10585 10588 10590 10593 10595 10598 10601 10604 10608 10610 10612 10614 10615 10618 10620 10622 10624 10627 10629 10631 10633 10634 10636 10637 10639 10642 10644 10647 10649 10651 10653 10656
10492 10493 10493 10493 10492 10493 10494 10494 10494 10494 10494 10494 10494 10495 10496 10496 10496 10496 10497 10498 10499 10500 10501 10502 10502 10503 10504 10505 10506 10508 10510 10512 10514 10516 10518 10521 10525 10528 10531 10534 10537 10540 10543 10546 10549 10551 10554 10556 10559 10561 10563 10566 10570 10574 10577 10580 10582 10584 10586 10589 10592 10595 10598 10600 10602 10604 10606 10609 10611 10613 10616 10618 10620 10621 10623 10625 10626 10628 10630 10632 10634 10636 10639 10641 10643
10488 10488 10489 10488 10487 10486 10487 10487 10487 10487 10488 10488 10488 10488 10489 10489 10489 10490 10490 10491 10493 10495 10496 10496 10497 10498 10499 10500 10500 10501 10503 10504 10506 10508 10510 10513 10515 10518 10521 10523 10526 10528 10531 10534 10537 10540 10543 10545 10548 10550 10552 10555 10557 10560 10564 10567 10570 10573 10574 10577 10579 10582 10585 10588 10590 10592 10594 10597 10599 10601 10603 10605 10607 10608 10610 10612 10614 10615 10617 10619 10622 10624 10626 10628 10630
10483 10482 10483 10483 10482 10481 10481 10481 10481 10482 10482 10482 10482 10482 10482 10482 10482 10483 10484 10485 10487 10488 10490 10490 10491 10491 10492 10493 10494 10495 10496 10497 10498 10500 10502 10504 10506 10509 10511 10513 10516 10518 10520 10523 10525 10528 10531 10533 10536 10538 10541 10543 10546 10548 10551 10554 10557 10559 10562 10564 10567 10570 10572 10575 10577 10579 10582 10584 10586 10588 10590 10591 10593 10595 10597 10599 10601 10602 10604 10606 10608 10610 10612 10614 10616
10477 10476 10476 10477 10477 10476 10476 10476 10476 10476 10476 10476 10475 10475 10475 10475 10475 10476 10477 10478 10480 10481 10483 10484 10484 10485 10485 10486 10487 10488 10489 10489 10490 10492 10493 10495 10497 10499 10501 10503 10505 10507 10509 10511 10513 10516 10518 10521 10523 10526 10528 10531 10533 10535 10538 10540 10543 10546 10548 10551 10553 10556 10559 10561 10564 10566 10568 10570 10572 10574 10576 10577 10580 10582 10584 10586 10588 10589 10591 10592 10595 10596 10598 10600 10602
10470 10470 10470 10470 10470 10470 10470 10470 10470 10470 10470 10469 10469 10468 10468 10468 10469 10470 10471 10472 10473 10474 10476 10477 10477 10478 10478 10478 10479 10480 10481 10482 10483 10484 10485 10486 10488 10490 10491 10493 10494 10496 10498 10499 10501 10504 10506 10508 10510 10512 10515 10517 10520 10522 10525 10527 10529 10532 10534 10537 10539 10542 10545 10547 10550 10552 10553 10555 10557 10559 10561 10563 10566 10568 10570 10572 10574 10575 10577 10579 10581 10582 10584 10586 10588
10463 10463 10463 10463 10463 10463 10463 10462 10462 10462 10462 10462 10461 10461 10461 10462 10463 10464 10464 10465 10466 10467 10468 10469 10469 10470 10470 10470 10470 10471 10472 10473 10475 10476 10477 10478 10479 10480 10482 10483 10483 10485 10486 10488 10489 10491 10493 10495 10497 10499 10502 10504 10506 10509 10511 10513 10516 10518 10521 10523 10525 10528 10530 10532 10535 10537 10538 10540 10541 10543 10546 10548 10551 10554 10556 10558 10559 10561 10563 10565 10567 10569 10570 10572 10573
10455 10456 10456 10456 10456 10456 10455 10455 10454 10454 10455 10455 10455 10454 10455 10455 10456 10457 10457 10458 10459 10459 10460 10460 10460 10461 10461 10461 10462 10463 10463 10464 10465 10467 10468 10469 10470 10471 10472 10473 10473 10473 10474 10476 10477 10478 10479 10481 10483 10486 10488 10490 10492 10494 10496 10499 10501 10504 10506 10509 10511 10513 10515 10518 10520 10521 10523 10524 10526 10528 10530 10532 10535 10538 10540 10543 10545 10547 10548 10550 10552 10554 10556 10558 10559
10449 10449 10449 10449 10448 10448 10447 10447 10447 10447 10447 10448 10448 10448 10448 10448 10448 10449 10450 10451 10451 10452 10452 10452 10452 10452 10452 10453 10453 10454 10455 10455 10455 10457 10458 10459 10460 10461 10462 10463 10463 10463 10463 10463 10464 10465 10466 10467 10469 10471 10473 10475 10477 10479 10481 10483 10485 10488 10490 10493 10495 10498 10500 10502 10504 10506 10508 10509 10510 10511 10514 10517 10519 10522 10525 10527 10529 10532 10533 10535 10537 10539 10541 10543 10544
10443 10443 10442 10441 10441 10440 10440 10440 10440 10440 10440 10440 10441 10441 10440 10441 10441 10442 10442 10443 10443 10443 10443 10443 10443 10443 10444 10444 10444 10445 10445 10445 10446 10446 10447 10448 10449 10450 10451 10452 10452 10451 10451 10452 10452 10452 10453 10453 10454 10456 10457 10459 10461 10463 10465 10467 10469 10471 10473 10475 10477 10480 10483 10485 10487 10489 10492 10493 10494 10496 10498 10500 10502 10505 10508 10511 10513 10515 10517 10519 10521 10523 10526 10528 10529
10437 10436 10435 10434 10434 10433 10433 10433 10433 10433 10433 10433 10432 10432 10432 10433 10433 10433 10434 10434 10434 10434 10434 10434 10434 10434 10434 10434 10434 10434 10435 10435 10435 10435 10436 10436 10437 10438 10439 10440 10440 10439 10438 10438 10439 10439 10440 10440 10441 10441 10442 10442 10444 10445 10447 10449 10451 10454 10455 10457 10459 10462 10465 10468 10470 10472 10474 10477 10479 10480 10482 10484 10485 10488 10490 10493 10496 10499 10501 10503 10505 10507 10510 10512 10513
10429 10429 10428 10427 10427 10427 10427 10427 10427 10426 10426 10425 10425 10424 10424 10424 10424 10425 10425 10424 10424 10424 10424 10424 10424 10424 10423 10424 10424 10423 10423 10423 10423 10423 10423 10424 10425 10425 10426 10426 10427 10426 10425 10424 10424 10424 10425 10426 10426 10426 10426 10427 10427 10428 10430 10432 10434 10436 10438 10440 10442 10444 10447 10450 10452 10454 10457 10459 10462 10464 10466 10468 10469 10471 10474 10476 10479 10482 10484 10486 10488 10491 10493 10495 10497
10422 10421 10421 10421 10421 10421 10420 10420 10419 10418 10417 10417 10417 10417 10416 10416 10416 10415 10415 10415 10414 10414 10413 10413 10413 10412 10412 10412 10412 10411 10411 10410 10409 10409 10410 10410 10411 10411 10412 10412 10412 10412 10412 10411 10410 10410 10411 10411 10411 10411 10412 10412 10413 10414 10415 10417 10418 10420 10422 10424 10426 10428 10430 10433 10435 10437 10440 10442 10445 10447 10449 10451 10453 10455 10457 10459 10462 10464 10467 10469 10471 10473 10476 10478 10481